{"data":{"norad_id":47776,"epoch":"2026-08-31T18:02:08.048256Z","epoch_age_seconds":1731970,"freshness":"OLD","line1":"1 47776U 21017BG  26243.75148204  .08160743  12316-4  79989-3 0  9991","line2":"2 47776  53.1322  64.1905 0009238 284.8011  75.2011 16.37345809305314","mean_motion":16.37345809,"eccentricity":0.0009238,"inclination_deg":53.1322,"raan_deg":64.1905,"arg_perigee_deg":284.8011,"mean_anomaly_deg":75.2011,"bstar":0.00079989,"rev_number":30531,"period_min":87.947212622083,"perigee_km":166.82073401993,"apogee_km":178.92437927679,"semimajor_km":6551.0095566484,"source":"CELESTRAK","updated_at":"2026-09-01T09:03:45.197309Z"}}